Location: *
(58.4167°N, 22.5000°E)
Time: 19:06:55
(UTC+00:00)

Cosmos 1727 Rocket - Pass Details

Date: 22 September 2019
Orbit: 960 x 997 km, 82.9° (Epoch: 15 October)

Event Time Altitude Azimuth Distance (km) Brightness Sun altitude
Exits shadow 20:30:46 67° 104° (ESE) 1,053 3.9 -27.4°
Maximum altitude 20:30:53 68° 96° (E) 1,051 3.9 -27.4°
Drops below altitude 10° 20:37:04 10° 16° (NNE) 2,723 6.8 -27.8°
Sets 20:39:35 0° 14° (NNE) 3,670 7.7 -28.0°
